EST,Max TemperatureF,Mean TemperatureF,Min TemperatureF,Max Dew PointF,MeanDew PointF,Min DewpointF,Max Humidity, Mean Humidity, Min Humidity, Max Sea Level PressureIn, Mean Sea Level PressureIn, Min Sea Level PressureIn, Max VisibilityMiles, Mean VisibilityMiles, Min VisibilityMiles, Max Wind SpeedMPH, Mean Wind SpeedMPH, Max Gust SpeedMPH,PrecipitationIn, CloudCover, Events, WindDirDegrees
2013-2-1,55,43,30,28,18,1,49,32,14,30.38,30.21,30.09,10,10,10,24,9,36,0.00,0,,301
2013-2-2,50,37,24,41,26,10,92,65,37,30.41,30.27,30.07,10,10,10,14,6,16,0.00,0,,69
2013-2-3,60,48,36,36,32,25,85,57,29,30.06,29.97,29.89,10,10,10,20,7,30,0.00,1,,274
2013-2-4,48,37,26,35,29,24,92,67,42,30.16,30.10,30.04,10,10,10,10,2,13,0.00,0,,150
2013-2-5,62,50,37,49,42,34,92,68,43,30.07,30.00,29.94,10,10,9,16,7,21,0.00,1,,221
2013-2-6,70,55,40,47,44,36,100,65,30,30.22,30.13,30.02,10,8,2,13,4,18,0.00,1,,254
2013-2-7,61,51,40,54,49,41,93,79,64,30.22,30.06,29.75,10,7,2,22,11,28,0.75,5,Rain,42
2013-2-8,64,57,49,55,48,44,93,73,52,30.04,29.81,29.64,10,9,5,18,7,28,0.13,5,Rain,320
2013-2-9,59,46,33,35,28,20,89,57,24,30.37,30.23,30.06,10,10,10,16,5,24,0.00,0,,355
2013-2-10,60,44,28,52,38,26,92,69,46,30.46,30.36,30.26,10,10,10,18,8,24,0.00,2,,79
2013-2-11,64,59,53,61,57,52,100,86,72,30.28,30.12,30.02,10,6,2,29,11,35,0.44,8,Rain,210
2013-2-12,63,57,50,58,54,47,93,77,60,30.11,30.02,29.94,10,9,4,13,4,16,0.64,7,Rain,247
2013-2-13,66,57,48,55,49,46,100,78,56,29.94,29.79,29.67,10,7,2,18,7,28,0.34,7,Rain,293
2013-2-14,53,46,38,47,38,34,93,72,50,30.09,30.01,29.85,10,10,9,14,3,20,0.00,0,,355
2013-2-15,58,45,31,42,36,33,100,72,43,30.11,30.05,29.97,10,5,0,13,4,16,0.00,0,Fog,172
2013-2-16,54,44,33,40,35,30,100,77,54,29.97,29.90,29.78,10,5,0,16,6,31,0.30,4,Fog-Rain-Snow,331
2013-2-17,39,33,26,32,25,18,96,70,44,30.30,30.13,29.96,10,10,2,18,7,30,T,2,Snow,293
2013-2-18,49,36,23,32,25,20,96,65,34,30.45,30.37,30.30,10,10,10,13,4,17,0.00,0,,144
2013-2-19,59,46,32,55,47,31,100,81,62,30.28,30.07,29.96,10,9,3,21,7,30,0.02,4,Rain,230
2013-2-20,55,45,35,45,33,19,93,60,26,30.14,30.08,30.01,10,10,10,18,6,21,0.00,0,,262
2013-2-21,56,45,33,40,30,19,92,61,29,30.21,30.16,30.11,10,10,10,15,5,20,0.00,0,,63
2013-2-22,52,47,42,48,42,27,100,77,53,30.28,30.18,30.07,10,7,2,17,9,21,0.16,6,Rain,50
2013-2-23,50,47,43,48,45,42,100,96,92,30.06,29.92,29.81,10,4,1,14,4,17,0.42,8,Rain,343
2013-2-24,66,54,42,49,45,40,100,69,37,30.02,29.91,29.77,10,6,0,14,6,21,T,4,Fog,310
2013-2-25,46,43,39,43,37,31,100,77,53,30.16,30.07,29.99,10,6,1,17,10,22,0.02,4,Rain,39
2013-2-26,64,53,42,63,54,39,100,93,86,30.05,29.76,29.60,10,4,2,24,12,35,1.20,7,Rain,139
2013-2-27,59,53,47,55,43,36,87,67,47,29.86,29.79,29.68,10,10,8,17,10,24,0.00,0,,250
2013-2-28,58,50,42,40,34,29,83,59,35,29.87,29.81,29.75,10,10,10,17,8,26,0.00,2,,277